"Pseudo-MPEC" for A10hMWx

Created 2019 Nov 10 1:07:02 UT using Find_Orb

Click here for an explanation of pseudo-MPECs

 
 Astrometry: 
     A10hMWx  C2019 11 07%P)qJ]aGlf+0Dr#1$!*)Mol#NG\OdYGg*dJEAstrometry12p'0hF51
     A10hMWx  C2019 11 07*um+YP2Nv5Wv69U/9wCf!iQ!HEej)`7h?A!Hj%n[rN6(h8Y1YZT0F51
     A10hMWx  C2019 11 07xU2w@#ZZnI6JH.n'V)redacted;y_?[M2:8EumUMB%wy_Wm.1]2YF51
     A10hMWx  C2019 11 07E'`0:a*uhp6Z;eMJ8*lq'clickEW8m?JPR]P3xRw8m'g5QWolBwqF51
     A10hMWx  C2019 11 08.43537005 11 45.89 -34 06 22.9    ~B8CM 18.52oVNEOCPT08
     A10hMWx  C2019 11 08.44085805 11 38.94 -34 04 16.5    ~B8CM 18.41oVNEOCPT08
     A10hMWx  C2019 11 08.44454605 11 34.26 -34 02 51.8    ~B8CM 18.58oVNEOCPT08
     A10hMWx  C2019 11 08.45650805 11 19.26 -33 58 23.2    ~B8CM 18.20oVNEOCPT08
     A10hMWx  C2019 11 08.51437805 10 07.23 -33 36 36.3    ~B8Fb 17.97oVNEOCPT08
     A10hMWx  C2019 11 08.51483705 10 06.62 -33 36 24.2    ~B8Fb 18.42oVNEOCPT08
     A10hMWx  C2019 11 08.51529705 10 06.12 -33 36 15.3    ~B8Fb 17.95oVNEOCPT08
     A10hMWx  C2019 11 08.51575705 10 05.62 -33 36 05.4    ~B8Fb 18.43oVNEOCPT08
     A10hMWx KC2019 11 085'=,herebc=V]$`i6:BS,i5s$f+N3MK^R!#n@HNWMiCYV]V0CEEpK91
     A10hMWx KC2019 11 08$e!Rx)W\E/8W0C%_T,N/O-ef=u/ctZA`[M8*Omg@Jw=Ofor6r\'1K91
     A10hMWx KC2019 11 08FxCBa`pA'VWTouexplanation8D9+e4UQ_S#Aq*,w+^AMF'CAcTxK91
     A10hMWx KC2019 11 08q#N0!AofU%\-d50_aok8P3'P;$qX2pO5x96?/VO496RN7io\(I2;K91

Station data:
(F51) Pan-STARRS 1, Haleakala  (N20.707235 W156.255910)  US/Hawaii.
   Observers N. Primak, A. Schultz, S. Watters, J. Thiel, T. Goggia. Measurer
   PS1 Science Consortium. 1.8-m Ritchey-Chrétien + CCD.
(K91) Sutherland-LCO A  (S32.380542 E20.810190)  South Africa.  Observers T.
   Lister, S. Greenstreet, E. Gomez. Measurer T. Lister. 1.0-m f/8
   Ritchey-Chrétien + CCD.
(T08) ATLAS-MLO, Mauna Loa  (N19.535772 W155.576400)  US/Hawaii.  Observers
   L. Denneau, A. Heinze, H. Weiland, J. Tonry, H. Flewelling, A.
   Fitzsimmons, D. Young, B. Stalder. Measurers L. Denneau, A. Heinze, J.
   Tonry. 0.5-m f/2.0 Schmidt + CCD.

Orbital elements:  A10hMWx
   Perihelion 2019 Sep 23.197020 +/- 0.0122 TT =  4:43:42 (JD 2458749.697020)
Epoch 2019 Nov  8.0 TT = JDT 2458795.5   Earth MOID: 0.0106   Ma: 0.0556
M  29.51884233 +/- 0.037            (J2000 ecliptic)          AutoNEOCP
n   0.64447427 +/- 0.000647         Peri.  129.63091 +/- 0.0019
a   1.32739137 +/- 0.000889         Node   218.00228 +/- 0.0027
e   0.3351275 +/- 0.000557          Incl.    7.42277 +/- 0.009
P   1.53/558.58d           H 24.8   G  0.15   U  7.8  
q 0.88254597 +/- 0.000149    Q 1.77223676 +/- 0.00193
From 16 observations 2019 Nov. 7-8 (33.7 hr); mean residual 0".63
Residuals in arcseconds: 
191107 F51  .12-  .36+    191108 T08  .68-  2.1+    191108 K91  .04+  .03-    
191107 F51  .25+  .41-    191108 T08  .11-  .07+    191108 K91  .12+  .13+    
191107 F51  .15+  .21-    191108 T08  .04+  .91-    191108 K91  .10-  .00     
191107 F51  .26-  .23+    191108 T08  .53-  .83+    191108 K91  .11-  .06+    
191108 T08  .20+  1.3-    191108 T08  .28+  .66-    
191108 T08  .24-  .85+    191108 T08  1.1+  1.2-    

Ephemerides (geocentric):
Date (UTC) HH   RA              Dec         delta   r     elong  mag " sig PA
---- -- -- --  -------------   -----------  ------ ------ -----  --- ---- ---
2019 11 10 01  04 51 55.921   -26 18 01.67  .02872 1.0086 128.7 19.0 1.29 169
2019 11 10 02  04 51 35.468   -26 09 13.38  .02893 1.0088 128.9 19.0 1.34 169
2019 11 10 03  04 51 15.352   -26 00 32.33  .02914 1.0090 129.1 19.0 1.38 169
2019 11 10 04  04 50 55.563   -25 51 58.38  .02935 1.0092 129.2 19.0 1.43 169
2019 11 10 05  04 50 36.095   -25 43 31.39  .02955 1.0094 129.4 19.0 1.48 168
2019 11 10 06  04 50 16.939   -25 35 11.22  .02976 1.0096 129.6 19.0 1.53 168
2019 11 10 07  04 49 58.087   -25 26 57.74  .02997 1.0098 129.7 19.0 1.57 168
2019 11 10 08  04 49 39.533   -25 18 50.83  .03018 1.0100 129.9 19.0 1.62 168
2019 11 10 09  04 49 21.270   -25 10 50.36  .03039 1.0102 130.1 19.0 1.67 167
2019 11 10 10  04 49 03.289   -25 02 56.20  .03060 1.0104 130.2 19.1 1.71 167
2019 11 10 11  04 48 45.586   -24 55 08.24  .03081 1.0105 130.4 19.1 1.76 167
2019 11 10 12  04 48 28.153   -24 47 26.36  .03102 1.0107 130.5 19.1 1.80 167
2019 11 10 13  04 48 10.984   -24 39 50.45  .03123 1.0109 130.7 19.1 1.85 167
2019 11 10 14  04 47 54.073   -24 32 20.39  .03144 1.0111 130.8 19.1 1.90 167
2019 11 10 15  04 47 37.414   -24 24 56.07  .03165 1.0113 131.0 19.1 1.94 166
2019 11 10 16  04 47 21.002   -24 17 37.39  .03186 1.0115 131.1 19.1 1.99 166
2019 11 10 17  04 47 04.831   -24 10 24.25  .03207 1.0117 131.3 19.1 2.03 166
2019 11 10 18  04 46 48.895   -24 03 16.54  .03228 1.0119 131.4 19.1 2.07 166
2019 11 10 19  04 46 33.190   -23 56 14.16  .03249 1.0121 131.6 19.1 2.12 166
2019 11 10 20  04 46 17.709   -23 49 17.02  .03271 1.0123 131.7 19.2 2.16 166
2019 11 10 21  04 46 02.449   -23 42 25.02  .03292 1.0125 131.8 19.2 2.21 166
2019 11 10 22  04 45 47.405   -23 35 38.07  .03313 1.0127 132.0 19.2 2.25 166
2019 11 10 23  04 45 32.572   -23 28 56.08  .03334 1.0129 132.1 19.2 2.29 166
2019 11 11 00  04 45 17.945   -23 22 18.96  .03355 1.0131 132.3 19.2 2.33 165
2019 11 11 01  04 45 03.520   -23 15 46.61  .03376 1.0132 132.4 19.2 2.38 165
2019 11 11 02  04 44 49.292   -23 09 18.97  .03398 1.0134 132.5 19.2 2.42 165
2019 11 11 03  04 44 35.259   -23 02 55.94  .03419 1.0136 132.7 19.2 2.46 165
2019 11 11 04  04 44 21.415   -22 56 37.44  .03440 1.0138 132.8 19.2 2.50 165
2019 11 11 05  04 44 07.756   -22 50 23.40  .03461 1.0140 132.9 19.2 2.54 165
2019 11 11 06  04 43 54.280   -22 44 13.74  .03483 1.0142 133.0 19.3 2.59 165
2019 11 11 07  04 43 40.981   -22 38 08.37  .03504 1.0144 133.2 19.3 2.63 165
2019 11 11 08  04 43 27.857   -22 32 07.24  .03525 1.0146 133.3 19.3 2.67 165
2019 11 11 09  04 43 14.904   -22 26 10.25  .03547 1.0148 133.4 19.3 2.71 165
2019 11 11 10  04 43 02.118   -22 20 17.35  .03568 1.0150 133.5 19.3 2.75 165
2019 11 11 11  04 42 49.497   -22 14 28.47  .03589 1.0152 133.6 19.3 2.79 165
2019 11 11 12  04 42 37.036   -22 08 43.53  .03611 1.0154 133.8 19.3 2.83 164
2019 11 11 13  04 42 24.733   -22 03 02.47  .03632 1.0156 133.9 19.3 2.87 164
2019 11 11 14  04 42 12.585   -21 57 25.22  .03654 1.0158 134.0 19.3 2.90 164
2019 11 11 15  04 42 00.589   -21 51 51.72  .03675 1.0160 134.1 19.3 2.94 164
2019 11 11 16  04 41 48.741   -21 46 21.91  .03696 1.0162 134.2 19.4 2.98 164
2019 11 11 17  04 41 37.039   -21 40 55.72  .03718 1.0163 134.3 19.4 3.02 164
2019 11 11 18  04 41 25.481   -21 35 33.11  .03739 1.0165 134.4 19.4 3.06 164
2019 11 11 19  04 41 14.062   -21 30 14.00  .03761 1.0167 134.6 19.4 3.09 164
2019 11 11 20  04 41 02.782   -21 24 58.34  .03782 1.0169 134.7 19.4 3.13 164
2019 11 11 21  04 40 51.636   -21 19 46.07  .03804 1.0171 134.8 19.4 3.17 164
2019 11 11 22  04 40 40.624   -21 14 37.15  .03825 1.0173 134.9 19.4 3.21 164
2019 11 11 23  04 40 29.741   -21 09 31.50  .03847 1.0175 135.0 19.4 3.24 164
2019 11 12 00  04 40 18.986   -21 04 29.10  .03868 1.0177 135.1 19.4 3.28 164